HADAV LHFH-LDSP

Flight info

Callsign HADAV
Flight time 1h 10m
Altitude 30000
Route EMBUT DCT OSDUK DCT SPL
Aircraft TBM8/L-SDFGRWY/S

Departure

Time 2026-04-24 06:26
Airport Farkashegy Airfield (LHFH)

Arrival

Time 2026-04-24 07:36
Airport Split Saint Jerome Airport (LDSP)
Time Latitude Longitude Altitude Speed Heading
2026-04-24 05:54 47.48908 18.91061 703 ft 0 kts 223°
2026-04-24 06:20 47.48913 18.91045 697 ft 4 kts 357°
2026-04-24 06:21 47.48941 18.91050 700 ft 5 kts
2026-04-24 06:21 47.48992 18.91073 705 ft 7 kts 47°
2026-04-24 06:21 47.49030 18.91133 706 ft 14 kts 51°
2026-04-24 06:21 47.49065 18.91265 705 ft 13 kts 94°
2026-04-24 06:22 47.49026 18.91366 698 ft 11 kts 141°
2026-04-24 06:22 47.48966 18.91435 700 ft 14 kts 143°
2026-04-24 06:22 47.48859 18.91538 692 ft 20 kts 148°
2026-04-24 06:22 47.48750 18.91636 681 ft 16 kts 147°
2026-04-24 06:23 47.48692 18.91694 681 ft 15 kts 144°
2026-04-24 06:23 47.48591 18.91794 673 ft 11 kts 147°
2026-04-24 06:23 47.48501 18.91867 667 ft 18 kts 153°
2026-04-24 06:23 47.48424 18.91923 661 ft 19 kts 154°
2026-04-24 06:24 47.48382 18.91952 658 ft 0 kts 154°
2026-04-24 06:24 47.48362 18.91965 658 ft 6 kts 170°
2026-04-24 06:24 47.48347 18.91946 657 ft 7 kts 230°
2026-04-24 06:24 47.48328 18.91853 657 ft 5 kts 321°
2026-04-24 06:25 47.48351 18.91831 658 ft 11 kts 327°
2026-04-24 06:25 47.48548 18.91637 675 ft 58 kts 329°
2026-04-24 06:25 47.48988 18.91176 771 ft 92 kts 319°
2026-04-24 06:25 47.49504 18.90564 1169 ft 96 kts 315°
2026-04-24 06:26 47.49685 18.89665 1698 ft 103 kts 256°
2026-04-24 06:26 47.49029 18.88973 1985 ft 136 kts 204°
2026-04-24 06:26 47.48106 18.88468 2348 ft 148 kts 202°
2026-04-24 06:26 47.47125 18.88068 2846 ft 151 kts 195°
2026-04-24 06:27 47.46131 18.88131 3503 ft 138 kts 148°
2026-04-24 06:27 47.45692 18.89260 4029 ft 127 kts 89°
2026-04-24 06:27 47.45582 18.90550 4543 ft 127 kts 86°
2026-04-24 06:27 47.45508 18.91845 5069 ft 127 kts 84°
2026-04-24 06:28 47.45399 18.93148 5575 ft 132 kts 105°
2026-04-24 06:28 47.44725 18.94098 6061 ft 138 kts 147°
2026-04-24 06:28 47.43820 18.94545 6516 ft 139 kts 189°
2026-04-24 06:28 47.43076 18.93845 6915 ft 127 kts 250°
2026-04-24 06:29 47.42625 18.92719 7346 ft 132 kts 231°
2026-04-24 06:29 47.41953 18.91756 7623 ft 137 kts 232°
2026-04-24 06:29 47.41294 18.90741 7968 ft 136 kts 232°
2026-04-24 06:29 47.40468 18.89992 8336 ft 146 kts 197°
2026-04-24 06:30 47.39497 18.89571 8661 ft 148 kts 203°
2026-04-24 06:30 47.38520 18.89062 9008 ft 149 kts 201°
2026-04-24 06:30 47.37527 18.88578 9347 ft 150 kts 202°
2026-04-24 06:30 47.36541 18.88094 9686 ft 152 kts 201°
2026-04-24 06:31 47.35529 18.87601 10017 ft 153 kts 201°
2026-04-24 06:31 47.34515 18.87106 10329 ft 154 kts 201°
2026-04-24 06:31 47.33505 18.86616 10631 ft 155 kts 201°
2026-04-24 06:31 47.32470 18.86110 10935 ft 157 kts 202°
2026-04-24 06:32 47.31426 18.85597 11246 ft 158 kts 202°
2026-04-24 06:32 47.30387 18.85092 11542 ft 159 kts 202°
2026-04-24 06:32 47.29321 18.84574 11788 ft 166 kts 201°
2026-04-24 06:32 47.28170 18.83997 11935 ft 181 kts 202°
2026-04-24 06:33 47.26904 18.83367 11972 ft 202 kts 201°
2026-04-24 06:33 47.25503 18.82681 12048 ft 219 kts 201°
2026-04-24 06:33 47.24065 18.81997 12368 ft 220 kts 200°
2026-04-24 06:33 47.22599 18.81299 12671 ft 222 kts 201°
2026-04-24 06:34 47.21122 18.80582 12975 ft 223 kts 201°
2026-04-24 06:34 47.19657 18.79870 13291 ft 225 kts 201°
2026-04-24 06:34 47.18161 18.79145 13603 ft 226 kts 201°
2026-04-24 06:34 47.16661 18.78419 13905 ft 228 kts 200°
2026-04-24 06:35 47.15147 18.77685 14171 ft 229 kts 200°
2026-04-24 06:35 47.13640 18.76955 14439 ft 231 kts 200°
2026-04-24 06:35 47.12107 18.76213 14714 ft 232 kts 200°
2026-04-24 06:35 47.10565 18.75468 14982 ft 233 kts 200°
2026-04-24 06:36 47.09039 18.74732 15245 ft 234 kts 200°
2026-04-24 06:36 47.07482 18.73977 15512 ft 235 kts 200°
2026-04-24 06:36 47.05915 18.73222 15777 ft 237 kts 200°
2026-04-24 06:36 47.04357 18.72471 16034 ft 238 kts 200°
2026-04-24 06:37 47.02777 18.71710 16295 ft 239 kts 200°
2026-04-24 06:37 47.01190 18.70946 16561 ft 240 kts 199°
2026-04-24 06:37 46.99591 18.70177 16841 ft 240 kts 199°
2026-04-24 06:37 46.98013 18.69418 17086 ft 243 kts 199°
2026-04-24 06:38 46.96401 18.68641 17350 ft 244 kts 199°
2026-04-24 06:38 46.94769 18.67858 17604 ft 246 kts 199°
2026-04-24 06:38 46.93154 18.67083 17852 ft 247 kts 199°
2026-04-24 06:38 46.91504 18.66290 18107 ft 248 kts 199°
2026-04-24 06:39 46.89872 18.65508 18351 ft 250 kts 199°
2026-04-24 06:39 46.88209 18.64712 18571 ft 250 kts 199°
2026-04-24 06:39 46.86564 18.63925 18784 ft 251 kts 198°
2026-04-24 06:39 46.84897 18.63127 18996 ft 252 kts 198°
2026-04-24 06:40 46.83229 18.62329 19206 ft 253 kts 198°
2026-04-24 06:40 46.81546 18.61524 19415 ft 254 kts 198°
2026-04-24 06:40 46.79880 18.60729 19626 ft 254 kts 198°
2026-04-24 06:40 46.78187 18.59921 19837 ft 255 kts 198°
2026-04-24 06:41 46.76509 18.59120 20045 ft 256 kts 198°
2026-04-24 06:41 46.74814 18.58313 20242 ft 257 kts 198°
2026-04-24 06:41 46.73110 18.57501 20448 ft 257 kts 197°
2026-04-24 06:41 46.71396 18.56684 20654 ft 258 kts 197°
2026-04-24 06:42 46.69690 18.55873 20864 ft 259 kts 197°
2026-04-24 06:42 46.67967 18.55054 21065 ft 260 kts 197°
2026-04-24 06:42 46.66259 18.54242 21262 ft 261 kts 197°
2026-04-24 06:42 46.64531 18.53422 21454 ft 261 kts 197°
2026-04-24 06:43 46.62795 18.52599 21651 ft 262 kts 197°
2026-04-24 06:43 46.61073 18.51782 21840 ft 263 kts 197°
2026-04-24 06:43 46.59329 18.50956 22029 ft 263 kts 196°
2026-04-24 06:43 46.57581 18.50129 22224 ft 264 kts 196°
2026-04-24 06:44 46.55832 18.49300 22406 ft 265 kts 196°
2026-04-24 06:44 46.54071 18.48467 22592 ft 265 kts 196°
2026-04-24 06:44 46.52314 18.47639 22777 ft 266 kts 196°
2026-04-24 06:44 46.50567 18.46812 22975 ft 265 kts 196°
2026-04-24 06:45 46.48829 18.45991 23288 ft 260 kts 195°
2026-04-24 06:45 46.47097 18.45178 23467 ft 262 kts 195°
2026-04-24 06:45 46.45377 18.44367 23636 ft 262 kts 195°
2026-04-24 06:45 46.43630 18.43543 23793 ft 263 kts 195°
2026-04-24 06:46 46.41885 18.42721 23946 ft 263 kts 195°
2026-04-24 06:46 46.40162 18.41910 24090 ft 264 kts 195°
2026-04-24 06:46 46.38408 18.41086 24239 ft 264 kts 195°
2026-04-24 06:46 46.36651 18.40262 24387 ft 265 kts 195°
2026-04-24 06:47 46.34913 18.39447 24527 ft 265 kts 195°
2026-04-24 06:47 46.33151 18.38619 24670 ft 266 kts 195°
2026-04-24 06:47 46.31386 18.37792 24800 ft 266 kts 195°
2026-04-24 06:47 46.29641 18.36974 24943 ft 267 kts 195°
2026-04-24 06:48 46.27875 18.36147 25101 ft 266 kts 195°
2026-04-24 06:48 46.26138 18.35333 25386 ft 259 kts 194°
2026-04-24 06:48 46.24412 18.34530 25535 ft 260 kts 194°
2026-04-24 06:48 46.22683 18.33722 25669 ft 261 kts 195°
2026-04-24 06:49 46.20972 18.32921 25807 ft 261 kts 194°
2026-04-24 06:49 46.19234 18.32110 25932 ft 262 kts 194°
2026-04-24 06:49 46.17499 18.31302 26069 ft 262 kts 194°
2026-04-24 06:49 46.15773 18.30498 26201 ft 262 kts 194°
2026-04-24 06:50 46.14027 18.29684 26340 ft 263 kts 194°
2026-04-24 06:50 46.12285 18.28872 26476 ft 263 kts 194°
2026-04-24 06:50 46.10538 18.28061 26601 ft 264 kts 194°
2026-04-24 06:50 46.08802 18.27255 26728 ft 264 kts 194°
2026-04-24 06:51 46.07055 18.26442 26786 ft 262 kts 195°
2026-04-24 06:51 46.05327 18.25637 26783 ft 259 kts 194°
2026-04-24 06:51 46.03633 18.24852 26796 ft 256 kts 194°
2026-04-24 06:51 46.01948 18.24074 26801 ft 253 kts 194°
2026-04-24 06:52 46.00277 18.23302 26799 ft 251 kts 194°
2026-04-24 06:52 45.98590 18.22520 26801 ft 259 kts 194°
2026-04-24 06:52 45.96855 18.21718 26923 ft 261 kts 194°
2026-04-24 06:52 45.95149 18.20927 27211 ft 256 kts 194°
2026-04-24 06:53 45.93469 18.20154 27359 ft 257 kts 194°
2026-04-24 06:53 45.91762 18.19365 27524 ft 257 kts 194°
2026-04-24 06:53 45.90054 18.18575 27676 ft 258 kts 194°
2026-04-24 06:53 45.88344 18.17787 27835 ft 258 kts 194°
2026-04-24 06:54 45.86630 18.16998 27988 ft 259 kts 194°
2026-04-24 06:54 45.84909 18.16205 28143 ft 259 kts 194°
2026-04-24 06:54 45.83213 18.15424 28291 ft 259 kts 194°
2026-04-24 06:54 45.81488 18.14631 28436 ft 260 kts 194°
2026-04-24 06:55 45.79754 18.13835 28590 ft 261 kts 194°
2026-04-24 06:55 45.78090 18.12848 28718 ft 263 kts 210°
2026-04-24 06:55 45.76517 18.11481 28881 ft 263 kts 209°
2026-04-24 06:55 45.74922 18.10164 29028 ft 264 kts 208°
2026-04-24 06:56 45.73324 18.08851 29156 ft 264 kts 209°
2026-04-24 06:56 45.71753 18.07537 29305 ft 265 kts 209°
2026-04-24 06:56 45.70153 18.06196 29436 ft 266 kts 209°
2026-04-24 06:56 45.68554 18.04864 29577 ft 266 kts 208°
2026-04-24 06:57 45.66949 18.03531 29715 ft 267 kts 209°
2026-04-24 06:57 45.65356 18.02208 29846 ft 267 kts 209°
2026-04-24 06:57 45.63742 18.00865 29973 ft 268 kts 209°
2026-04-24 06:57 45.62126 17.99523 30098 ft 269 kts 209°
2026-04-24 06:58 45.60485 17.98161 30102 ft 275 kts 209°
2026-04-24 06:58 45.58835 17.96791 30106 ft 280 kts 209°
2026-04-24 06:58 45.57128 17.95375 30118 ft 285 kts 209°
2026-04-24 06:58 45.55396 17.93940 30122 ft 289 kts 209°
2026-04-24 06:59 45.53655 17.92501 30115 ft 294 kts 209°
2026-04-24 06:59 45.51869 17.91023 30116 ft 298 kts 209°
2026-04-24 06:59 45.50070 17.89535 30117 ft 302 kts 209°
2026-04-24 07:00 45.46402 17.86508 30116 ft 308 kts 209°
2026-04-24 07:00 45.42647 17.83413 30127 ft 313 kts 209°
2026-04-24 07:01 45.38876 17.80309 30118 ft 316 kts 209°
2026-04-24 07:01 45.35035 17.77153 30120 ft 319 kts 209°
2026-04-24 07:02 45.31240 17.74039 30114 ft 312 kts 209°
2026-04-24 07:02 45.27512 17.70985 30110 ft 305 kts 209°
2026-04-24 07:03 45.23889 17.68023 30113 ft 298 kts 209°
2026-04-24 07:03 45.22118 17.66575 30112 ft 295 kts 209°
2026-04-24 07:03 45.20340 17.65124 30107 ft 292 kts 209°
2026-04-24 07:03 45.18586 17.63694 30110 ft 289 kts 209°
2026-04-24 07:04 45.16844 17.62275 30113 ft 286 kts 209°
2026-04-24 07:04 45.15147 17.60892 30116 ft 283 kts 209°
2026-04-24 07:04 45.13442 17.59504 30121 ft 280 kts 209°
2026-04-24 07:04 45.11761 17.58137 30122 ft 277 kts 209°
2026-04-24 07:05 45.10080 17.56772 30123 ft 281 kts 209°
2026-04-24 07:05 45.08354 17.55370 30135 ft 289 kts 209°
2026-04-24 07:05 45.06610 17.53952 30140 ft 296 kts 209°
2026-04-24 07:06 45.02964 17.50994 30154 ft 307 kts 209°
2026-04-24 07:06 44.99188 17.47939 30159 ft 316 kts 209°
2026-04-24 07:07 44.95325 17.44814 30161 ft 323 kts 209°
2026-04-24 07:07 44.89429 17.40055 30162 ft 329 kts 209°
2026-04-24 07:08 44.85448 17.36851 30166 ft 332 kts 210°
2026-04-24 07:08 44.81419 17.33611 30159 ft 334 kts 210°
2026-04-24 07:09 44.77366 17.30358 30154 ft 335 kts 210°
2026-04-24 07:09 44.73317 17.27111 30152 ft 336 kts 210°
2026-04-24 07:10 44.69241 17.23853 30148 ft 338 kts 210°
2026-04-24 07:10 44.65137 17.20573 30147 ft 338 kts 210°
2026-04-24 07:11 44.61058 17.17321 30090 ft 340 kts 210°
2026-04-24 07:11 44.58955 17.15644 29591 ft 351 kts 210°
2026-04-24 07:11 44.56888 17.13951 29126 ft 335 kts 211°
2026-04-24 07:12 44.54841 17.12334 28661 ft 339 kts 209°
2026-04-24 07:12 44.52778 17.10758 28207 ft 342 kts 210°
2026-04-24 07:12 44.50696 17.09101 27760 ft 344 kts 211°
2026-04-24 07:12 44.48613 17.07413 27308 ft 345 kts 211°
2026-04-24 07:13 44.46545 17.05771 26876 ft 345 kts 210°
2026-04-24 07:13 44.44451 17.04129 26450 ft 344 kts 211°
2026-04-24 07:13 44.43492 17.03372 26253 ft 341 kts 211°
2026-04-24 07:13 44.40800 17.01234 25689 ft 334 kts 210°
2026-04-24 07:14 44.39426 17.00164 25413 ft 334 kts 211°
2026-04-24 07:14 44.37430 16.98591 25006 ft 333 kts 211°
2026-04-24 07:14 44.35413 16.96983 24586 ft 331 kts 211°
2026-04-24 07:14 44.33412 16.95396 24167 ft 328 kts 211°
2026-04-24 07:15 44.31427 16.93840 23747 ft 325 kts 211°
2026-04-24 07:15 44.29457 16.92295 23258 ft 322 kts 211°
2026-04-24 07:15 44.27533 16.90780 22776 ft 319 kts 211°
2026-04-24 07:15 44.25590 16.89254 22294 ft 323 kts 210°
2026-04-24 07:16 44.23606 16.87712 21825 ft 327 kts 211°
2026-04-24 07:16 44.21618 16.86139 21361 ft 328 kts 211°
2026-04-24 07:16 44.19659 16.84590 20914 ft 327 kts 210°
2026-04-24 07:16 44.17672 16.83039 20467 ft 325 kts 210°
2026-04-24 07:17 44.15707 16.81507 20022 ft 323 kts 210°
2026-04-24 07:17 44.13759 16.79979 19586 ft 320 kts 210°
2026-04-24 07:17 44.11814 16.78458 19152 ft 318 kts 210°
2026-04-24 07:17 44.09908 16.76970 18731 ft 315 kts 210°
2026-04-24 07:18 44.07995 16.75478 18289 ft 313 kts 210°
2026-04-24 07:18 44.06098 16.73998 17806 ft 310 kts 210°
2026-04-24 07:18 44.04244 16.72552 17332 ft 308 kts 211°
2026-04-24 07:18 44.02377 16.71100 16864 ft 305 kts 211°
2026-04-24 07:19 44.00531 16.69663 16403 ft 302 kts 211°
2026-04-24 07:19 43.98720 16.68254 15946 ft 299 kts 211°
2026-04-24 07:19 43.96909 16.66847 15504 ft 297 kts 211°
2026-04-24 07:19 43.95104 16.65445 15059 ft 294 kts 211°
2026-04-24 07:20 43.93317 16.64059 14623 ft 293 kts 211°
2026-04-24 07:20 43.91563 16.62700 14194 ft 290 kts 211°
2026-04-24 07:20 43.89807 16.61340 13750 ft 288 kts 211°
2026-04-24 07:20 43.88064 16.59986 13271 ft 285 kts 211°
2026-04-24 07:21 43.86330 16.58645 12801 ft 284 kts 211°
2026-04-24 07:21 43.84608 16.57316 12336 ft 281 kts 211°
2026-04-24 07:21 43.82938 16.56021 11949 ft 274 kts 211°
2026-04-24 07:21 43.81281 16.54743 11569 ft 269 kts 210°
2026-04-24 07:22 43.79646 16.53486 11198 ft 267 kts 210°
2026-04-24 07:22 43.78046 16.52250 10833 ft 266 kts 210°
2026-04-24 07:22 43.76430 16.51003 10460 ft 264 kts 210°
2026-04-24 07:22 43.74829 16.49780 10105 ft 261 kts 210°
2026-04-24 07:23 43.73249 16.48552 9718 ft 259 kts 211°
2026-04-24 07:23 43.71680 16.47336 9317 ft 257 kts 210°
2026-04-24 07:23 43.70115 16.46141 8928 ft 255 kts 210°
2026-04-24 07:23 43.68585 16.44970 8545 ft 253 kts 210°
2026-04-24 07:24 43.67045 16.43790 8161 ft 252 kts 210°
2026-04-24 07:24 43.65511 16.42604 7777 ft 250 kts 210°
2026-04-24 07:24 43.64011 16.41452 7409 ft 248 kts 210°
2026-04-24 07:24 43.62496 16.40298 7038 ft 248 kts 210°
2026-04-24 07:25 43.60993 16.39141 6674 ft 246 kts 210°
2026-04-24 07:25 43.59486 16.37989 6289 ft 247 kts 209°
2026-04-24 07:25 43.58006 16.36856 5904 ft 244 kts 210°
2026-04-24 07:25 43.56525 16.35719 5506 ft 241 kts 210°
2026-04-24 07:26 43.55113 16.34640 5106 ft 241 kts 210°
2026-04-24 07:26 43.53662 16.33528 4662 ft 236 kts 210°
2026-04-24 07:26 43.52231 16.32441 4226 ft 232 kts 210°
2026-04-24 07:26 43.50856 16.31384 3819 ft 228 kts 212°
2026-04-24 07:27 43.49683 16.29943 3695 ft 222 kts 232°
2026-04-24 07:27 43.48920 16.28128 3699 ft 215 kts 249°
2026-04-24 07:27 43.48366 16.26279 3713 ft 207 kts 248°
2026-04-24 07:27 43.47785 16.24450 3547 ft 208 kts 249°
2026-04-24 07:28 43.47220 16.22627 3370 ft 210 kts 249°
2026-04-24 07:28 43.46639 16.20774 3191 ft 210 kts 249°
2026-04-24 07:28 43.46063 16.18942 3012 ft 205 kts 248°
2026-04-24 07:28 43.45505 16.17172 2834 ft 202 kts 248°
2026-04-24 07:29 43.44987 16.15544 2785 ft 172 kts 249°
2026-04-24 07:29 43.44531 16.14090 2786 ft 160 kts 249°
2026-04-24 07:29 43.43896 16.12896 2774 ft 157 kts 216°
2026-04-24 07:29 43.42842 16.12576 2785 ft 156 kts 180°
2026-04-24 07:30 43.41800 16.12567 2784 ft 143 kts 180°
2026-04-24 07:30 43.40906 16.12137 2780 ft 137 kts 227°
2026-04-24 07:30 43.40650 16.10995 2781 ft 127 kts 286°
2026-04-24 07:30 43.41196 16.09954 2792 ft 147 kts 323°
2026-04-24 07:31 43.42153 16.09305 2800 ft 160 kts 348°
2026-04-24 07:31 43.43246 16.09598 2803 ft 168 kts 32°
2026-04-24 07:31 43.43911 16.10904 2804 ft 175 kts 71°
2026-04-24 07:31 43.44330 16.12472 2779 ft 176 kts 56°
2026-04-24 07:32 43.45044 16.13833 2706 ft 182 kts 51°
2026-04-24 07:32 43.45787 16.15243 2488 ft 182 kts 51°
2026-04-24 07:32 43.46536 16.16595 2247 ft 168 kts 50°
2026-04-24 07:32 43.47208 16.17791 2034 ft 151 kts 49°
2026-04-24 07:33 43.47841 16.18913 1837 ft 147 kts 50°
2026-04-24 07:33 43.48479 16.20055 1635 ft 157 kts 50°
2026-04-24 07:33 43.49145 16.21275 1404 ft 152 kts 52°
2026-04-24 07:33 43.49741 16.22364 1227 ft 135 kts 49°
2026-04-24 07:34 43.50300 16.23330 1044 ft 122 kts 48°
2026-04-24 07:34 43.50791 16.24224 888 ft 108 kts 50°
2026-04-24 07:34 43.51255 16.25024 749 ft 105 kts 48°
2026-04-24 07:34 43.51683 16.25819 569 ft 98 kts 49°
2026-04-24 07:35 43.52080 16.26567 454 ft 98 kts 45°
2026-04-24 07:35 43.52509 16.27326 366 ft 104 kts 46°
2026-04-24 07:35 43.52950 16.28110 221 ft 100 kts 45°
2026-04-24 07:35 43.53370 16.28849 92 ft 91 kts 48°
2026-04-24 07:36 43.53690 16.29414 77 ft 54 kts 54°
2026-04-24 07:36 43.53859 16.29719 74 ft 34 kts 49°
2026-04-24 07:36 43.53952 16.29890 72 ft 12 kts 55°
2026-04-24 07:36 43.54010 16.30001 69 ft 15 kts 52°
2026-04-24 07:37 43.54037 16.30086 69 ft 6 kts 105°
2026-04-24 07:37 43.53986 16.30090 66 ft 9 kts 197°
2026-04-24 07:37 43.53921 16.30065 63 ft 9 kts 197°
2026-04-24 07:37 43.53887 16.30029 61 ft 6 kts 233°
2026-04-24 07:38 43.53863 16.29986 63 ft 3 kts 232°
2026-04-24 07:38 43.53843 16.29950 63 ft 7 kts 232°
2026-04-24 07:38 43.53789 16.29849 63 ft 16 kts 234°
2026-04-24 07:38 43.53722 16.29729 63 ft 13 kts 232°
2026-04-24 07:39 43.53675 16.29643 63 ft 9 kts 231°
2026-04-24 07:39 43.53642 16.29585 59 ft 7 kts 233°
2026-04-24 07:39 43.53613 16.29528 63 ft 6 kts 240°
2026-04-24 07:39 43.53591 16.29481 61 ft 5 kts 183°
2026-04-24 07:40 43.53578 16.29501 63 ft 3 kts 111°
2026-04-24 07:40 43.53574 16.29514 63 ft 2 kts 112°
2026-04-24 07:40 43.53573 16.29516 63 ft 0 kts 112°